Flag for Finland Weather past 2 weeks in Lappeenranta, Finland

Now
84 °F

Passing clouds.


Feels Like: 83 °F
Forecast: 61 / 75 °F
Wind: 18 mph from West

Location: Lappeenranta

Current Time: Jul 3, 2015 at 7:29:49 PM

Latest Report: Jul 3, 2015 at 6:50 PM


Visibility: N/A

Pressure: 30.07 "Hg

Humidity: 37%

Dew point: 55 °F

Location of LappeenrantaLocation

Historic Weather in Lappeenranta — Graph

°F

Lappeenranta temperature yesterday

Maximum temperature yesterday: 73 °F (at 4:50 PM)
Minimum temperature yesterday: 52 °F (at 1:50 AM)
Average temperature yesterday: 64 °F

Past Weeks' High & Low Weather Summary

 TemperatureHumidityPressure
High86 °F (Jul 3, 3:50 PM)100% (Jun 18, 6:50 PM)30.33 "Hg (Jun 18, 6:50 PM)
Low50 °F (Jun 18, 6:50 PM)33% (Jul 3, 4:50 PM)29.71 "Hg (Jun 27, 12:20 PM)
Average61 °F75%29.90 "Hg
* Reported Jun 18 6:20 PM — Jul 3 6:20 PM, Lappeenranta, Weather by CustomWeather, © 2015

Note: Actual official high and low records may vary slightly from our data, if they occured in-between our weather recording intervals... More about our weather records

Advertising

Lappeenranta weather history for previous 24 hours

 ConditionsComfort  
Time TempWeatherWind HumidityBarometerVisibility
6:20 PM
Fri, Jul 3
84 °FPassing clouds.16 mph37%30.07 "HgN/A
5:50 PM86 °FPassing clouds.17 mph35%30.07 "HgN/A
5:20 PM86 °FPassing clouds.20 mph33%30.07 "HgN/A
4:50 PM86 °FPassing clouds.20 mph33%30.07 "HgN/A
4:20 PM86 °FPassing clouds.20 mph35%30.07 "HgN/A
3:50 PM86 °FPassing clouds.21 mph35%30.09 "HgN/A
3:20 PM84 °FPassing clouds.18 mph37%30.09 "HgN/A
2:50 PM84 °FPassing clouds.18 mph40%30.09 "HgN/A
2:20 PM84 °FPassing clouds.18 mph43%30.09 "HgN/A
1:50 PM84 °FPassing clouds.16 mph43%30.09 "HgN/A
1:20 PM82 °FPassing clouds.17 mph45%30.09 "HgN/A
12:50 PM82 °FSunny.15 mph45%30.12 "Hg10 mi
12:20 PM81 °FPassing clouds.16 mph48%30.12 "HgN/A
11:50 AM81 °FSunny.17 mph45%30.12 "Hg10 mi
11:20 AM79 °FPassing clouds.17 mph48%30.12 "HgN/A
10:50 AM79 °FPassing clouds.15 mph51%30.12 "HgN/A
10:20 AM77 °FPassing clouds.13 mph57%30.15 "HgN/A
9:50 AM75 °FPassing clouds.10 mph57%30.15 "HgN/A
9:20 AM72 °FPassing clouds.10 mph69%30.15 "HgN/A
8:50 AM70 °FPassing clouds.8 mph69%30.15 "HgN/A
8:20 AM66 °FPassing clouds.9 mph73%30.18 "HgN/A
7:50 AM64 °FPassing clouds.6 mph78%30.18 "HgN/A
7:20 AM63 °FPassing clouds.6 mph77%30.18 "HgN/A
6:50 AM61 °FPassing clouds.5 mph83%30.18 "HgN/A
6:20 AM61 °FPassing clouds.5 mph83%30.21 "HgN/A
5:50 AM59 °FSunny.2 mph82%30.21 "Hg10 mi
5:20 AM59 °FSunny.3 mph82%30.21 "Hg10 mi
4:50 AM59 °FPassing clouds.5 mph82%30.21 "HgN/A
4:20 AM61 °FPassing clouds.7 mph77%30.21 "HgN/A
3:50 AM59 °FClear.8 mph82%30.24 "Hg10 mi
3:20 AM59 °FPassing clouds.7 mph77%30.24 "HgN/A
2:50 AM61 °FClear.7 mph72%30.24 "Hg10 mi
2:20 AM61 °FClear.8 mph72%30.24 "Hg10 mi
1:50 AM61 °FClear.9 mph68%30.24 "Hg10 mi
1:20 AM61 °FClear.10 mph68%30.24 "Hg10 mi
12:50 AM61 °FClear.9 mph63%30.24 "Hg10 mi
12:20 AM61 °FClear.9 mph63%30.24 "Hg10 mi
11:50 PM
Thu, Jul 2
63 °FPassing clouds.9 mph59%30.27 "HgN/A
11:20 PM63 °FPassing clouds.8 mph59%30.27 "HgN/A
10:50 PM63 °FPassing clouds.8 mph59%30.27 "HgN/A
10:20 PM64 °FPassing clouds.7 mph56%30.27 "HgN/A
9:50 PM64 °FPassing clouds.6 mph60%30.27 "HgN/A
9:20 PM66 °FPassing clouds.7 mph56%30.27 "HgN/A
8:50 PM68 °FPassing clouds.8 mph53%30.27 "HgN/A
8:20 PM70 °FLight rain. Broken clouds.8 mph53%30.27 "HgN/A
7:50 PM70 °FPassing clouds.8 mph53%30.27 "HgN/A
7:20 PM72 °FPassing clouds.10 mph50%30.27 "HgN/A
Weather by CustomWeather, © 2015

See weather overviewHow to use our weather pages